Observations for Trim Patrick St
| Time | AQI | Temp °C | Hum % | Pres Pa | CO μg/m³ | H₂S μg/m³ | NO μg/m³ | NO₂ μg/m³ | O₃ μg/m³ | SO₂ μg/m³ | PM1 μg/m³ | PM2.5 μg/m³ | PM10 μg/m³ |
|---|---|---|---|---|---|---|---|---|---|---|---|---|---|
| Monday 3 August 2026 | |||||||||||||
| 04:09 | 1 | 15.4 | 79 | 38,460 | 0.18 | 0 | 1.9 | 12.99 | 38.21 | 0 | 5.43 | 8.12 | 8.94 |
| 04:08 | 1 | 15.4 | 79 | 38,460 | 0.19 | 0 | 1.91 | 11.1 | 37.76 | 0 | 4.57 | 7.41 | 8.15 |
| 04:07 | 1 | 15.4 | 79 | 38,460 | 0.19 | 0 | 1.91 | 12.78 | 42.02 | 0 | 4.57 | 8.81 | 9.69 |
| 04:06 | 1 | 15.4 | 79 | 38,460 | 0.2 | 0 | 1.88 | 13.05 | 42.42 | 0 | 6.29 | 10.23 | 11.25 |
| 04:05 | 1 | 15.4 | 79 | 38,460 | 0.2 | 0 | 1.89 | 23.23 | 36.13 | 0 | 2.86 | 6.7 | 7.37 |
| 04:04 | 1 | 15.4 | 79 | 38,460 | 0.19 | 0 | 1.91 | 8.79 | 47.41 | 0 | 5.43 | 8.8 | 9.68 |
| 04:03 | 1 | 15.4 | 79 | 38,460 | 0.19 | 0 | 1.92 | 12.09 | 41.14 | 0 | 5.43 | 8.81 | 9.69 |
| 04:02 | 1 | 15.4 | 79 | 38,460 | 0.2 | 0 | 1.92 | 16.45 | 33.56 | 0 | 4.57 | 8.81 | 9.69 |
| 04:01 | 1 | 15.4 | 79 | 38,460 | 0.21 | 0 | 1.92 | 13.32 | 44.6 | 0 | 4.57 | 8.8 | 9.68 |
| 04:00 | 1 | 15.4 | 79 | 38,460 | 0.2 | 0 | 1.91 | 12.02 | 33.45 | 0 | 3.71 | 7.4 | 8.14 |
| 03:59 | 1 | 15.4 | 79 | 38,460 | 0.2 | 0 | 1.92 | 14.8 | 32.24 | 0 | 5.43 | 8.81 | 9.69 |
| 03:58 | 1 | 15.4 | 79 | 38,460 | 0.2 | 0 | 1.92 | 12.64 | 35.4 | 0 | 4.57 | 8.81 | 9.69 |
| 03:57 | 1 | 15.4 | 79 | 38,460 | 0.2 | 0 | 1.91 | 14.11 | 38.38 | 0 | 3.71 | 7.4 | 8.14 |
| 03:56 | 1 | 15.4 | 79 | 38,460 | 0.19 | 0 | 1.86 | 10.19 | 39.56 | 0 | 4.57 | 8.8 | 9.68 |
| 03:55 | 1 | 15.4 | 79 | 38,460 | 0.21 | 0 | 1.91 | 13.15 | 38.26 | 0 | 5.43 | 8.8 | 9.68 |
| 03:53 | 1 | 15.4 | 79 | 38,460 | 0.2 | 0 | 1.89 | 10.09 | 41.71 | 0 | 4.57 | 7.4 | 8.14 |
| 03:50 | 1 | 15.4 | 79 | 38,460 | 0.19 | 0 | 1.83 | 15.07 | 43.46 | 0 | 4.57 | 8.8 | 9.68 |
| 03:49 | 1 | 15.4 | 79 | 38,460 | 0.2 | 0 | 1.81 | 10.99 | 30.95 | 0 | 5.43 | 8.8 | 9.68 |
| 03:48 | 1 | 15.4 | 79 | 38,460 | 0.2 | 0 | 1.78 | 13.54 | 46 | 0 | 6.29 | 10.2 | 11.22 |
| 03:47 | 1 | 15.4 | 79 | 38,460 | 0.2 | 0 | 1.92 | 12.24 | 39.08 | 0 | 4.57 | 8.09 | 8.9 |